Time,TemperatureF,DewpointF,PressureIn,WindDirection,WindDirectionDegrees,WindSpeedMPH,WindSpeedGustMPH,Humidity,HourlyPrecipIn,Conditions,Clouds,dailyrainin,SoftwareType,DateUTC
2013-03-18 00:42:00,35.4,35.1,29.76,SE,135,9.4,-999.0,99,-99.99,,,0.00,Acu-Link.com,2013-03-18 04:42:00,
2013-03-18 00:57:00,35.4,35.1,29.74,ESE,112,4.7,-999.0,99,-99.99,,,0.00,Acu-Link.com,2013-03-18 04:57:00,
2013-03-18 01:12:00,35.4,35.1,29.74,NNW,337,5.3,-999.0,99,-99.99,,,0.00,Acu-Link.com,2013-03-18 05:12:00,
2013-03-18 01:27:00,35.6,35.3,29.73,ENE,67,5.8,-999.0,99,-99.99,,,0.00,Acu-Link.com,2013-03-18 05:27:00,
2013-03-18 01:58:00,35.8,35.5,29.71,SE,135,2.7,-999.0,99,-99.99,,,0.00,Acu-Link.com,2013-03-18 05:58:00,
2013-03-18 02:13:00,36.0,35.7,29.71,ESE,112,4.7,-999.0,99,-99.99,,,0.00,Acu-Link.com,2013-03-18 06:13:00,
2013-03-18 02:28:00,36.1,35.8,29.69,SSE,157,6.3,-999.0,99,-99.99,,,0.00,Acu-Link.com,2013-03-18 06:28:00,
2013-03-18 02:43:00,36.3,36.0,29.67,SSE,157,4.2,-999.0,99,-99.99,,,0.00,Acu-Link.com,2013-03-18 06:43:00,
2013-03-18 02:58:00,36.5,36.2,29.67,ESE,112,4.2,-999.0,99,-99.99,,,0.00,Acu-Link.com,2013-03-18 06:58:00,
2013-03-18 03:14:00,36.5,36.2,29.67,ESE,112,3.7,-999.0,99,-99.99,,,0.00,Acu-Link.com,2013-03-18 07:14:00,
2013-03-18 03:29:00,36.7,36.4,29.66,SE,135,4.2,-999.0,99,-99.99,,,0.00,Acu-Link.com,2013-03-18 07:29:00,
2013-03-18 03:44:00,36.7,36.4,29.66,East,90,5.8,-999.0,99,-99.99,,,0.00,Acu-Link.com,2013-03-18 07:44:00,
2013-03-18 03:59:00,36.9,36.6,29.66,ESE,112,2.7,-999.0,99,-99.99,,,0.00,Acu-Link.com,2013-03-18 07:59:00,
2013-03-18 04:15:00,37.0,36.7,29.64,SE,135,4.2,-999.0,99,-99.99,,,0.00,Acu-Link.com,2013-03-18 08:15:00,
2013-03-18 04:30:00,37.0,36.7,29.63,SE,135,2.2,-999.0,99,-99.99,,,0.00,Acu-Link.com,2013-03-18 08:30:00,
2013-03-18 04:45:00,37.2,36.9,29.62,SSE,157,7.3,-999.0,99,-99.99,,,0.00,Acu-Link.com,2013-03-18 08:45:00,
2013-03-18 05:00:00,37.4,37.1,29.60,SSE,157,8.3,-999.0,99,-99.99,,,0.00,Acu-Link.com,2013-03-18 09:00:00,
2013-03-18 05:15:00,37.6,37.3,29.59,ESE,112,4.7,-999.0,99,-99.99,,,0.00,Acu-Link.com,2013-03-18 09:15:00,
2013-03-18 05:30:00,38.1,37.8,29.57,SSE,157,8.9,-999.0,99,-99.99,,,0.00,Acu-Link.com,2013-03-18 09:30:00,
2013-03-18 05:45:00,38.7,38.4,29.56,ESE,112,7.3,-999.0,99,-99.99,,,0.00,Acu-Link.com,2013-03-18 09:45:00,
2013-03-18 06:01:00,39.4,39.1,29.55,ESE,112,4.7,-999.0,99,-99.99,,,0.00,Acu-Link.com,2013-03-18 10:01:00,
2013-03-18 06:31:00,41.4,41.1,29.64,WNW,292,4.7,-999.0,99,-99.99,,,0.09,Acu-Link.com,2013-03-18 10:31:00,
2013-03-18 06:46:00,39.0,38.7,29.64,SSE,157,4.7,-999.0,99,-99.99,,,0.26,Acu-Link.com,2013-03-18 10:46:00,
2013-03-18 07:02:00,37.8,37.5,29.62,SE,135,3.2,-999.0,99,-99.99,,,0.29,Acu-Link.com,2013-03-18 11:02:00,
2013-03-18 07:17:00,37.0,36.7,29.69,NW,315,3.7,-999.0,99,-99.99,,,0.29,Acu-Link.com,2013-03-18 11:17:00,
2013-03-18 07:32:00,36.1,35.8,29.63,ENE,67,2.2,-999.0,99,-99.99,,,0.37,Acu-Link.com,2013-03-18 11:32:00,
2013-03-18 07:47:00,36.5,36.2,29.60,ENE,67,1.7,-999.0,99,-99.99,,,0.45,Acu-Link.com,2013-03-18 11:47:00,
2013-03-18 08:02:00,37.0,36.7,29.61,SE,135,2.7,-999.0,99,-99.99,,,0.51,Acu-Link.com,2013-03-18 12:02:00,
2013-03-18 08:18:00,37.6,37.3,29.61,SSE,157,0.0,-999.0,99,-99.99,,,0.60,Acu-Link.com,2013-03-18 12:18:00,
2013-03-18 08:33:00,37.9,37.6,29.62,NNW,337,1.7,-999.0,99,-99.99,,,0.75,Acu-Link.com,2013-03-18 12:33:00,
2013-03-18 08:48:00,38.5,38.2,29.61,ESE,112,2.2,-999.0,99,-99.99,,,0.83,Acu-Link.com,2013-03-18 12:48:00,
2013-03-18 09:03:00,39.2,38.9,29.61,SE,135,2.7,-999.0,99,-99.99,,,0.89,Acu-Link.com,2013-03-18 13:03:00,
2013-03-18 09:18:00,39.9,39.6,29.59,ESE,112,4.2,-999.0,99,-99.99,,,0.97,Acu-Link.com,2013-03-18 13:18:00,
2013-03-18 09:34:00,41.2,40.9,29.58,SE,135,5.8,-999.0,99,-99.99,,,1.11,Acu-Link.com,2013-03-18 13:34:00,
2013-03-18 09:49:00,41.9,41.6,29.58,SE,135,7.8,-999.0,99,-99.99,,,1.19,Acu-Link.com,2013-03-18 13:49:00,
2013-03-18 10:04:00,41.4,41.1,29.58,SE,135,3.2,-999.0,99,-99.99,,,1.22,Acu-Link.com,2013-03-18 14:04:00,
2013-03-18 10:19:00,41.5,41.2,29.58,SSW,202,4.7,-999.0,99,-99.99,,,1.25,Acu-Link.com,2013-03-18 14:19:00,
2013-03-18 10:34:00,42.8,42.5,29.58,SSE,157,2.2,-999.0,99,-99.99,,,1.40,Acu-Link.com,2013-03-18 14:34:00,
2013-03-18 10:49:00,43.7,43.4,29.59,NNE,22,4.7,-999.0,99,-99.99,,,1.44,Acu-Link.com,2013-03-18 14:49:00,
2013-03-18 11:05:00,45.1,44.8,29.56,SE,135,6.8,-999.0,99,-99.99,,,1.51,Acu-Link.com,2013-03-18 15:05:00,
2013-03-18 11:20:00,45.5,45.2,29.59,East,90,5.8,-999.0,99,-99.99,,,1.56,Acu-Link.com,2013-03-18 15:20:00,
2013-03-18 11:35:00,45.3,45.0,29.59,SSE,157,3.7,-999.0,99,-99.99,,,1.64,Acu-Link.com,2013-03-18 15:35:00,
2013-03-18 11:50:00,45.9,45.6,29.61,West,270,2.7,-999.0,99,-99.99,,,1.70,Acu-Link.com,2013-03-18 15:50:00,
2013-03-18 12:05:00,46.9,46.6,29.62,NE,45,4.7,-999.0,99,-99.99,,,1.78,Acu-Link.com,2013-03-18 16:05:00,
2013-03-18 12:20:00,47.5,47.2,29.62,NNE,22,5.3,-999.0,99,-99.99,,,1.86,Acu-Link.com,2013-03-18 16:20:00,
2013-03-18 12:36:00,48.2,47.9,29.59,SE,135,6.8,-999.0,99,-99.99,,,1.97,Acu-Link.com,2013-03-18 16:36:00,
2013-03-18 13:06:00,50.0,49.7,29.55,North,0,7.3,-999.0,99,-99.99,,,2.01,Acu-Link.com,2013-03-18 17:06:00,
2013-03-18 13:21:00,50.7,50.4,29.56,South,180,4.2,-999.0,99,-99.99,,,2.01,Acu-Link.com,2013-03-18 17:21:00,
2013-03-18 13:36:00,51.3,51.0,29.54,West,270,4.7,-999.0,99,-99.99,,,2.01,Acu-Link.com,2013-03-18 17:36:00,
2013-03-18 13:52:00,52.2,51.9,29.55,ESE,112,5.8,-999.0,99,-99.99,,,2.01,Acu-Link.com,2013-03-18 17:52:00,
2013-03-18 14:07:00,53.1,52.8,29.55,West,270,3.7,-999.0,99,-99.99,,,2.01,Acu-Link.com,2013-03-18 18:07:00,
2013-03-18 14:22:00,54.0,53.7,29.55,SW,225,4.2,-999.0,99,-99.99,,,2.01,Acu-Link.com,2013-03-18 18:22:00,
2013-03-18 14:37:00,54.7,53.9,29.53,NW,315,6.3,-999.0,97,-99.99,,,2.01,Acu-Link.com,2013-03-18 18:37:00,
2013-03-18 14:52:00,55.2,53.5,29.52,South,180,6.8,-999.0,94,-99.99,,,2.01,Acu-Link.com,2013-03-18 18:52:00,
2013-03-18 15:08:00,55.8,53.8,29.52,SSE,157,7.3,-999.0,93,-99.99,,,2.01,Acu-Link.com,2013-03-18 19:08:00,
2013-03-18 15:23:00,55.6,53.6,29.53,SSE,157,2.7,-999.0,93,-99.99,,,2.01,Acu-Link.com,2013-03-18 19:23:00,
2013-03-18 15:38:00,55.8,53.5,29.52,West,270,7.8,-999.0,92,-99.99,,,2.01,Acu-Link.com,2013-03-18 19:38:00,
2013-03-18 15:53:00,55.8,53.5,29.53,SSW,202,8.3,-999.0,92,-99.99,,,2.01,Acu-Link.com,2013-03-18 19:53:00,
2013-03-18 16:09:00,55.8,53.8,29.53,SSE,157,3.2,-999.0,93,-99.99,,,2.01,Acu-Link.com,2013-03-18 20:09:00,
2013-03-18 16:24:00,56.1,54.1,29.53,West,270,6.3,-999.0,93,-99.99,,,2.01,Acu-Link.com,2013-03-18 20:24:00,
2013-03-18 16:39:00,56.3,54.3,29.53,WSW,247,3.7,-999.0,93,-99.99,,,2.01,Acu-Link.com,2013-03-18 20:39:00,
2013-03-18 16:54:00,56.7,54.4,29.53,WNW,292,6.3,-999.0,92,-99.99,,,2.01,Acu-Link.com,2013-03-18 20:54:00,
2013-03-18 17:09:00,56.5,53.9,29.54,SSE,157,3.7,-999.0,91,-99.99,,,2.01,Acu-Link.com,2013-03-18 21:09:00,
2013-03-18 17:25:00,55.6,53.3,29.56,WNW,292,8.3,-999.0,92,-99.99,,,2.01,Acu-Link.com,2013-03-18 21:25:00,
2013-03-18 17:40:00,55.6,53.0,29.56,ESE,112,7.3,-999.0,91,-99.99,,,2.01,Acu-Link.com,2013-03-18 21:40:00,
2013-03-18 17:55:00,55.6,52.4,29.56,South,180,3.7,-999.0,89,-99.99,,,2.01,Acu-Link.com,2013-03-18 21:55:00,
2013-03-18 18:10:00,54.1,51.2,29.57,South,180,3.2,-999.0,90,-99.99,,,2.01,Acu-Link.com,2013-03-18 22:10:00,
2013-03-18 18:25:00,53.1,50.2,29.57,WNW,292,6.3,-999.0,90,-99.99,,,2.01,Acu-Link.com,2013-03-18 22:25:00,
2013-03-18 19:11:00,51.6,49.6,29.61,SSE,157,2.2,-999.0,93,-99.99,,,2.01,Acu-Link.com,2013-03-18 23:11:00,
2013-03-18 19:41:00,50.7,48.8,29.62,WNW,292,4.7,-999.0,93,-99.99,,,2.01,Acu-Link.com,2013-03-18 23:41:00,
2013-03-18 19:57:00,50.5,48.6,29.62,East,90,3.7,-999.0,93,-99.99,,,2.01,Acu-Link.com,2013-03-18 23:57:00,
2013-03-18 20:12:00,50.4,47.9,29.63,SW,225,4.2,-999.0,91,-99.99,,,2.01,Acu-Link.com,2013-03-19 00:12:00,
2013-03-18 20:27:00,50.0,47.5,29.64,West,270,5.8,-999.0,91,-99.99,,,2.01,Acu-Link.com,2013-03-19 00:27:00,
2013-03-18 20:42:00,49.6,46.8,29.64,NW,315,4.2,-999.0,90,-99.99,,,2.01,Acu-Link.com,2013-03-19 00:42:00,
2013-03-18 20:58:00,49.3,46.2,29.65,NNW,337,4.2,-999.0,89,-99.99,,,2.01,Acu-Link.com,2013-03-19 00:58:00,
2013-03-18 21:13:00,48.9,45.8,29.66,West,270,7.8,-999.0,89,-99.99,,,2.01,Acu-Link.com,2013-03-19 01:13:00,
2013-03-18 21:28:00,48.6,45.5,29.67,South,180,4.7,-999.0,89,-99.99,,,2.01,Acu-Link.com,2013-03-19 01:28:00,
2013-03-18 21:43:00,47.8,45.0,29.68,West,270,3.7,-999.0,90,-99.99,,,2.01,Acu-Link.com,2013-03-19 01:43:00,
2013-03-18 21:58:00,46.8,44.3,29.69,West,270,3.2,-999.0,91,-99.99,,,2.01,Acu-Link.com,2013-03-19 01:58:00,
2013-03-18 22:14:00,46.0,42.9,29.69,SW,225,3.7,-999.0,89,-99.99,,,2.01,Acu-Link.com,2013-03-19 02:14:00,
2013-03-18 22:29:00,45.5,42.2,29.70,NW,315,4.2,-999.0,88,-99.99,,,2.01,Acu-Link.com,2013-03-19 02:29:00,
2013-03-18 22:44:00,45.1,42.1,29.72,WNW,292,3.2,-999.0,89,-99.99,,,2.01,Acu-Link.com,2013-03-19 02:44:00,
2013-03-18 23:00:00,44.8,41.5,29.73,South,180,8.3,-999.0,88,-99.99,,,2.01,Acu-Link.com,2013-03-19 03:00:00,
2013-03-18 23:15:00,44.4,40.8,29.73,NW,315,6.3,-999.0,87,-99.99,,,2.01,Acu-Link.com,2013-03-19 03:15:00,
2013-03-18 23:30:00,43.5,39.3,29.74,ESE,112,7.8,-999.0,85,-99.99,,,2.01,Acu-Link.com,2013-03-19 03:30:00,
2013-03-18 23:45:00,43.2,38.4,29.74,ESE,112,2.7,-999.0,83,-99.99,,,2.01,Acu-Link.com,2013-03-19 03:45:00,